Torna al catalogo

HULIANWANG DIGUI-50

AttivoComunicazioniLEO
NORAD 65107·PAYLOAD·🇨🇳 China

Lanciato Aug 4, 2025 da Wenchang Space Launch Site

Loading…

Prossimi Passaggi (prossime 24 ore)

TLE

AggiornatoSource: Space-Track

Epoca: Sep 14, 2026, 14:48 UTC

1 65107U 25168B   26257.61675158 -.00000091  00000-0  71595-4 0  9994
2 65107  50.0022   5.0438 0008180 355.6887   4.3914 13.29325507 54589

Traccia HULIANWANG DIGUI-50 in tempo reale con AllMySat

Download on the App Store